Time,TemperatureF,DewpointF,PressureIn,WindDirection,WindDirectionDegrees,WindSpeedMPH,WindSpeedGustMPH,Humidity,HourlyPrecipIn,Conditions,Clouds,dailyrainin,SolarRadiationWatts/m^2,SoftwareType,DateUTC
2013-03-10 00:01:00,21.0,2.0,-100.00,WNW,289,9.0,15.0,43,0.00,,,0.01,0.000000,,2013-03-10 07:01:00,
2013-03-10 00:11:00,21.0,2.0,-100.00,WNW,289,9.0,15.0,43,0.00,,,0.01,0.000000,,2013-03-10 07:11:00,
2013-03-10 00:21:00,21.0,2.0,-100.00,WNW,289,9.0,15.0,43,0.00,,,0.01,0.000000,,2013-03-10 07:21:00,
2013-03-10 00:31:00,21.0,2.0,-100.00,WNW,289,9.0,15.0,43,0.00,,,0.01,0.000000,,2013-03-10 07:31:00,
2013-03-10 01:01:00,23.0,-1.0,-100.00,WNW,287,12.0,19.0,34,0.00,,,0.01,0.000000,,2013-03-10 08:01:00,
2013-03-10 01:11:00,23.0,-1.0,-100.00,WNW,287,12.0,19.0,34,0.00,,,0.01,0.000000,,2013-03-10 08:11:00,
2013-03-10 01:21:00,23.0,-1.0,-100.00,WNW,287,12.0,19.0,34,0.00,,,0.01,0.000000,,2013-03-10 08:21:00,
2013-03-10 01:31:00,23.0,-1.0,-100.00,WNW,287,12.0,19.0,34,0.00,,,0.01,0.000000,,2013-03-10 08:31:00,
2013-03-10 03:11:00,25.0,-3.0,-100.00,WNW,287,12.0,23.0,28,-99.99,,,0.01,0.000000,,2013-03-10 09:11:00,
2013-03-10 03:21:00,25.0,-3.0,-100.00,WNW,287,12.0,23.0,28,-99.99,,,0.01,0.000000,,2013-03-10 09:21:00,
2013-03-10 03:31:00,25.0,-3.0,-100.00,WNW,287,12.0,23.0,28,-99.99,,,0.01,0.000000,,2013-03-10 09:31:00,
2013-03-10 04:11:00,25.0,1.0,-100.00,WNW,286,6.0,16.0,34,-99.99,,,0.01,0.000000,,2013-03-10 10:11:00,
2013-03-10 04:21:00,25.0,1.0,-100.00,WNW,286,6.0,16.0,34,-99.99,,,0.01,0.000000,,2013-03-10 10:21:00,
2013-03-10 04:31:00,25.0,1.0,-100.00,WNW,286,6.0,16.0,34,-99.99,,,0.01,0.000000,,2013-03-10 10:31:00,
2013-03-10 05:11:00,23.0,3.0,-100.00,WNW,286,7.0,12.0,42,-99.99,,,0.01,0.000000,,2013-03-10 11:11:00,
2013-03-10 05:21:00,23.0,3.0,-100.00,WNW,286,7.0,12.0,42,-99.99,,,0.01,0.000000,,2013-03-10 11:21:00,
2013-03-10 05:31:00,23.0,3.0,-100.00,WNW,286,7.0,12.0,42,-99.99,,,0.01,0.000000,,2013-03-10 11:31:00,
2013-03-10 08:11:00,29.0,7.0,-100.00,WNW,287,9.0,16.0,38,-99.99,,,0.01,1.000000,,2013-03-10 14:11:00,
2013-03-10 08:21:00,29.0,7.0,-100.00,WNW,287,9.0,16.0,38,-99.99,,,0.01,1.000000,,2013-03-10 14:21:00,
2013-03-10 08:32:00,29.0,7.0,-100.00,WNW,287,9.0,16.0,38,-99.99,,,0.01,1.000000,,2013-03-10 14:32:00,
2013-03-10 09:11:00,32.0,8.0,-100.00,SW,233,2.0,10.0,36,-99.99,,,0.01,20.000000,,2013-03-10 15:11:00,
2013-03-10 09:21:00,32.0,8.0,-100.00,SW,233,2.0,10.0,36,-99.99,,,0.01,20.000000,,2013-03-10 15:21:00,
2013-03-10 09:31:00,32.0,8.0,-100.00,SW,233,2.0,10.0,36,-99.99,,,0.01,20.000000,,2013-03-10 15:31:00,
2013-03-10 10:11:00,41.0,10.0,-100.00,North,354,1.0,9.0,27,-99.99,,,0.01,243.000000,,2013-03-10 16:11:00,
2013-03-10 10:21:00,41.0,10.0,-100.00,North,354,1.0,9.0,27,-99.99,,,0.01,243.000000,,2013-03-10 16:21:00,
2013-03-10 12:01:00,45.0,8.0,-100.00,NNW,335,3.0,8.0,22,-99.99,,,0.01,663.000000,,2013-03-10 18:01:00,
2013-03-10 13:01:00,48.0,9.0,-100.00,NE,35,2.0,8.0,20,-99.99,,,0.01,822.000000,,2013-03-10 19:01:00,
2013-03-10 14:02:00,51.0,9.0,-100.00,NNW,345,2.0,11.0,18,-99.99,,,0.00,855.000000,,2013-03-10 20:02:00,
2013-03-10 15:02:00,51.0,10.0,-100.00,NW,324,6.0,15.0,19,-99.99,,,0.00,834.000000,,2013-03-10 21:02:00,
2013-03-10 15:40:00,50.0,9.0,-100.00,North,4,2.0,20.0,19,-99.99,,,0.00,822.000000,,2013-03-10 21:40:00,
2013-03-10 16:02:00,50.0,9.0,-100.00,North,4,2.0,20.0,19,-99.99,,,0.00,822.000000,,2013-03-10 22:02:00,
2013-03-10 16:40:00,43.0,5.0,-100.00,East,84,4.0,22.0,20,-99.99,,,0.00,592.000000,,2013-03-10 22:40:00,
2013-03-10 17:02:00,43.0,5.0,-100.00,East,84,4.0,22.0,20,-99.99,,,0.00,592.000000,,2013-03-10 23:02:00,
2013-03-10 17:12:00,43.0,5.0,-100.00,East,84,4.0,22.0,20,-99.99,,,0.00,592.000000,,2013-03-10 23:12:00,
2013-03-10 17:22:00,43.0,5.0,-100.00,East,84,4.0,22.0,20,-99.99,,,0.00,592.000000,,2013-03-10 23:22:00,
2013-03-10 17:32:00,43.0,5.0,-100.00,East,84,4.0,22.0,20,-99.99,,,0.00,592.000000,,2013-03-10 23:32:00,
2013-03-10 17:40:00,39.0,7.0,-100.00,WNW,302,5.0,19.0,26,0.00,,,0.00,367.000000,,2013-03-10 23:40:00,
2013-03-10 18:02:00,39.0,7.0,-100.00,WNW,302,5.0,19.0,26,0.00,,,0.00,367.000000,,2013-03-11 00:02:00,
2013-03-10 18:12:00,39.0,7.0,-100.00,WNW,302,5.0,19.0,26,0.00,,,0.00,367.000000,,2013-03-11 00:12:00,
2013-03-10 18:22:00,39.0,7.0,-100.00,WNW,302,5.0,19.0,26,0.00,,,0.00,367.000000,,2013-03-11 00:22:00,
2013-03-10 18:32:00,39.0,7.0,-100.00,WNW,302,5.0,19.0,26,0.00,,,0.00,367.000000,,2013-03-11 00:32:00,
2013-03-10 18:40:00,34.0,7.0,-100.00,SSW,209,7.0,13.0,32,0.00,,,0.00,131.000000,,2013-03-11 00:40:00,
2013-03-10 19:02:00,34.0,7.0,-100.00,SSW,209,7.0,13.0,32,0.00,,,0.00,131.000000,,2013-03-11 01:02:00,
2013-03-10 19:12:00,34.0,7.0,-100.00,SSW,209,7.0,13.0,32,0.00,,,0.00,131.000000,,2013-03-11 01:12:00,
2013-03-10 19:22:00,34.0,7.0,-100.00,SSW,209,7.0,13.0,32,0.00,,,0.00,131.000000,,2013-03-11 01:22:00,
2013-03-10 19:32:00,34.0,7.0,-100.00,SSW,209,7.0,13.0,32,0.00,,,0.00,131.000000,,2013-03-11 01:32:00,
2013-03-10 19:40:00,32.0,11.0,-100.00,SW,221,6.0,13.0,41,0.00,,,0.00,13.000000,,2013-03-11 01:40:00,
2013-03-10 20:02:00,32.0,11.0,-100.00,SW,221,6.0,13.0,41,0.00,,,0.00,13.000000,,2013-03-11 02:02:00,
2013-03-10 20:12:00,32.0,11.0,-100.00,SW,221,6.0,13.0,41,0.00,,,0.00,13.000000,,2013-03-11 02:12:00,
2013-03-10 20:22:00,32.0,11.0,-100.00,SW,221,6.0,13.0,41,0.00,,,0.00,13.000000,,2013-03-11 02:22:00,
2013-03-10 20:32:00,32.0,11.0,-100.00,SW,221,6.0,13.0,41,0.00,,,0.00,13.000000,,2013-03-11 02:32:00,
2013-03-10 20:40:00,29.0,10.0,-100.00,SSW,202,10.0,18.0,45,0.00,,,0.00,0.000000,,2013-03-11 02:40:00,
2013-03-10 21:02:00,29.0,10.0,-100.00,SSW,202,10.0,18.0,45,0.00,,,0.00,0.000000,,2013-03-11 03:02:00,
2013-03-10 21:12:00,29.0,10.0,-100.00,SSW,202,10.0,18.0,45,0.00,,,0.00,0.000000,,2013-03-11 03:12:00,
2013-03-10 21:22:00,29.0,10.0,-100.00,SSW,202,10.0,18.0,45,0.00,,,0.00,0.000000,,2013-03-11 03:22:00,
2013-03-10 21:32:00,29.0,10.0,-100.00,SSW,202,10.0,18.0,45,0.00,,,0.00,0.000000,,2013-03-11 03:32:00,
2013-03-10 21:40:00,28.0,10.0,-100.00,SSW,197,11.0,19.0,47,0.00,,,0.00,0.000000,,2013-03-11 03:40:00,
2013-03-10 22:02:00,28.0,10.0,-100.00,SSW,197,11.0,19.0,47,0.00,,,0.00,0.000000,,2013-03-11 04:02:00,
2013-03-10 22:12:00,28.0,10.0,-100.00,SSW,197,11.0,19.0,47,0.00,,,0.00,0.000000,,2013-03-11 04:12:00,
2013-03-10 22:22:00,28.0,10.0,-100.00,SSW,197,11.0,19.0,47,0.00,,,0.00,0.000000,,2013-03-11 04:22:00,
2013-03-10 22:32:00,28.0,10.0,-100.00,SSW,197,11.0,19.0,47,0.00,,,0.00,0.000000,,2013-03-11 04:32:00,
2013-03-10 22:40:00,28.0,9.0,-100.00,South,174,5.0,17.0,45,0.00,,,0.00,0.000000,,2013-03-11 04:40:00,
2013-03-10 23:03:00,28.0,9.0,-100.00,South,174,5.0,17.0,45,0.00,,,0.00,0.000000,,2013-03-11 05:03:00,
2013-03-10 23:12:00,28.0,9.0,-100.00,South,174,5.0,17.0,45,0.00,,,0.00,0.000000,,2013-03-11 05:12:00,
2013-03-10 23:22:00,28.0,9.0,-100.00,South,174,5.0,17.0,45,0.00,,,0.00,0.000000,,2013-03-11 05:22:00,
2013-03-10 23:32:00,28.0,9.0,-100.00,South,174,5.0,17.0,45,0.00,,,0.00,0.000000,,2013-03-11 05:32:00,
2013-03-10 23:40:00,27.0,12.0,-100.00,SSW,211,7.0,17.0,53,0.00,,,0.00,0.000000,,2013-03-11 05:40:00,